Weather in Kislovodsk

Russia / Stavropol Krai     43°54′18″N   42°43′00″E
temp.,
°C
wind,
m/s
gust,
m/s
humid.,
%
clouds,
%
prec.,
mm/h
press.,
hPa
HPBL,
m
4 december, sat
sat400:00+3sw33518 0.0 102016
03:00+3ssw33475 0.0 102015
06:00+4ssw323918 0.0 102013
09:00+6s22385 0.0 101920
12:00+11ese36285 0.0 1016626
15:00+10e47354 0.0 1015344
18:00+6sse3349100 0.0 101441
21:00+6s324993 0.0 101314
5 december, sun
sun500:00+6ssw32397 0.0 101112
03:00+6ssw3233100 0.0 101113
06:00+7sw2232100 0.0 101011
09:00+7wnw1139100 0.0 101212
12:00+8n2239100 0.0 1012244
15:00+9se014392 0.0 1012147
18:00+5sse115344 0.0 101510
21:00+5ssw22515 0.0 101610
6 december, mon
mon600:00+5ssw22505 0.0 101710
03:00+4ssw115119 0.0 101810
06:00+3s22529 0.0 101910
09:00+6s11501 0.0 102011
12:00+10ene21385 0.0 1018246
15:00+10ene224355 0.0 1019192
18:00+6sse11555 0.0 102110
21:00+6sse22540 0.0 102110
7 december, tue
tue700:00+5sse22531 0.0 102110
03:00+5s22515 0.0 102110
06:00+5sse22485 0.0 102110
09:00+7sse22421 0.0 102021
12:00+12ese35320 0.0 1016322
15:00+11ese45445 0.0 1015220
18:00+6se34605 0.0 101545
21:00+6se33550 0.0 101330
8 december, wed
wed800:00+6se22400 0.0 101119
03:00+6se22360 0.0 101016
06:00+5sse11351 0.0 100911
09:00+7sw11320 0.0 100912
12:00+10nne113173 0.0 100770
15:00+10wnw11375 0.0 100617
18:00+8wsw3341100 0.0 100816
21:00+8wsw2239100 0.0 100811